Location: Capelle
(50.3413°N, 1.9974°E)
Time: 00:41:50
(UTC+00:00)

Cosmos 2366 rocket - Pass Details

Date: 12 January 2026
Orbit: 955 x 996 km, 82.9° (Epoch: 18 February)

Event Time Altitude Azimuth Distance (km) Brightness Sun altitude
Rises 17:42:37 0° 350° (N) 3,709 7.0 -13.7°
Reaches altitude 10° 17:45:09 10° 352° (N) 2,761 6.3 -14.1°
Maximum altitude 17:51:30 79° 79° (E) 1,018 4.0 -15.1°
Drops below altitude 10° 17:57:51 10° 167° (SSE) 2,756 6.4 -16.0°
Sets 18:00:23 0° 169° (SSE) 3,701 7.1 -16.4°
